User: anonymous   Login
Location: ?????????
(55.6553°N, 38.9075°E)
Time: 05:02:19
(UTC+00:00)
Language:

Cosmos 2278 Rocket - Orbit

View from above orbital plane
View from above orbital plane
View from above satellite
View from above satellite

Ground track
Ground track

The orbit data is extracted from the following two-line orbital elements,

1 23088U 94023B   19348.01451573 -.00000450  00000-0 -20901-3 0  9996
2 23088  70.9973 172.4417 0003389 200.4681 159.6306 14.14680798324218
Epoch (UTC): 14 December 2019 00:20:54
Eccentricity: 0.0003389
inclination: 70.9973°
perigee height: 841 km
apogee height: 846 km
right ascension of ascending node: 172.4417°
argument of perigee: 200.4681°
revolutions per day: 14.14680798
mean anomaly at epoch: 159.6306°
orbit number at epoch: 32421

The dashed part of the orbit path shows where the satellite is in the earth's shadow,  

DLR